Starlink 30044

decayed
NORAD ID: 55703 Int'l Des: 2023-026 Owner: SPXS Country: US Constellation: starlink
LEOCIRCULAR

关于 Starlink 30044

正在加载描述...

高度历史

Altitude vs Time

uPlot chart will show altitude changes over time

两行轨道根数

1 55703U 23026J 23164.91418084 .56100395 93674-5 49767-2 0 9992
2 55703 42.9869 355.1777 0012661 312.5009 47.6520 16.37804738 17796
Epoch: Jun 13, 2023 • Age: 21933 hours

当前状态

Position data unavailable
发射日期 Feb 27, 2023
运行时间 2.7 years
衰减日期 Jun 13, 2023
类型 internet

技术详情

分类 Payload
质量 730.00 kg
干质量 700.00 kg
总质量 730.00 kg
长度 0.30 m
直径 4.10 m
跨度 29.00 m
形状 Box + pan
制造商 SPXS
平台类型 Starlink V2M
阶段状态 Reentered
所有者/国家 SPXS/US

大型星座

Loading constellations...